Regional Weather Roundup
Issued by NWS Cleveland, OH

Home | Current Version | Previous Version | Text Only | Print | Product List | Glossary Off
Versions: 1 2 3 4 5 6 7 8 9 10 11 12 13 14 15 16 17 18 19 20 21 22 23 24 25 26 27 28 29 30 31 32 33 34 35 36 37 38 39 40 41 42 43 44 45 46 47 48 49 50

000
ASUS41 KCLE 041110
RWRCLE
OHIO REGIONAL WEATHER ROUNDUP
NATIONAL WEATHER SERVICE WILMINGTON, OH
700 AM EDT TUE AUG 04 2015

NOTE: "FAIR" INDICATES FEW OR NO CLOUDS BELOW 12,000 FEET WITH NO
SIGNIFICANT WEATHER AND/OR OBSTRUCTIONS TO VISIBILITY.

OHZ001>008-015>018-024>027-034-035-043-044-041200-
   NORTHWEST OHIO

CITY           SKY/WX    TMP DP  RH WIND       PRES   REMARKS
DEFIANCE       CLEAR     57  53  86 CALM      29.94R
FINDLAY        CLEAR     59  52  77 CALM      29.94R
TOLEDO EXPRESS CLEAR     58  52  80 SW5       29.93R
TOLEDO EXEC    CLEAR     59  53  80 SW6       29.94R
LIMA           CLEAR     59  53  80 S3        29.96R
$$

OHZ009>014-019>023-028>033-038-089-041200-
   NORTHEAST OHIO

CITY           SKY/WX    TMP DP  RH WIND       PRES   REMARKS
CLE-HOPKINS    PTCLDY    60  53  77 SW8       29.95R
CLE-LAKEFRONT  CLEAR     65  56  72 SW7       29.91R
CUY CO. ARPT   PTCLDY    61  57  88 S5        29.92
LORAIN-ELYRIA  CLEAR     57  53  86 SW6       29.94R
ASHTABULA      CLEAR     59  58  96 CALM      29.92R
AKRON-CANTON   CLEAR     59  52  77 CALM      29.96R
WOOSTER        CLEAR     54  52  93 CALM      29.97R
MANSFIELD      CLEAR     56  52  86 S6        29.97R
YOUNGSTOWN     PTCLDY    59  56  89 SW3       29.94R
$$

OHZ042-051>053-060>062-070>072-077>081-041200-
  SOUTHWEST OHIO

CITY           SKY/WX    TMP DP  RH WIND       PRES   REMARKS
CINC-COVINGTON PTCLDY    65  63  93 CALM      29.97R
CINC-LUNKEN    FOG       64  64 100 CALM      29.97R VSB 1/2
HAMILTON       FOG       61  60  97 CALM      29.97S VSB 1/2
DAYTON         PTCLDY    63  55  75 S3        29.98R
WRIGHT-PAT AFB CLEAR     61  60  96 CALM      29.97R
DAYTON GENERAL CLEAR     61  58  90 CALM      29.97R
WILMINGTON     PTCLDY    61  59  93 CALM      29.98R
$$

OHZ036-037-039>041-045>050-054>059-063>069-073>076-082>088-041200-
  CENTRAL AND SOUTHEAST OHIO

CITY           SKY/WX    TMP DP  RH WIND       PRES   REMARKS
COLUMBUS       PTCLDY    62  60  93 CALM      29.97R
OSU AIRPORT    PTCLDY    61  58  90 CALM      29.97R
BOLTON FIELD   PTCLDY    58  58  99 SW3       29.98R
RICKENBACK AFB PTCLDY    60  59  96 S3        29.97R
NEWARK         PTCLDY    57  56  96 CALM      29.97R
MARION         CLEAR     56  52  86 SE3       29.97R
LANCASTER      PTCLDY    60  57  89 CALM      29.98R
ZANESVILLE     PTCLDY    60  56  86 CALM      29.98R
NEW PHILLY     CLEAR     56  54  93 SE3       29.98R
$$



USA.gov is the U.S. government's official web portal to all federal, state and local government web resources and services.